CDT,Max TemperatureF,Mean TemperatureF,Min TemperatureF,Max Dew PointF,MeanDew PointF,Min DewpointF,Max Humidity, Mean Humidity, Min Humidity, Max Sea Level PressureIn, Mean Sea Level PressureIn, Min Sea Level PressureIn, Max VisibilityMiles, Mean VisibilityMiles, Min VisibilityMiles, Max Wind SpeedMPH, Mean Wind SpeedMPH, Max Gust SpeedMPH,PrecipitationIn, CloudCover, Events, WindDirDegrees
2013-6-1,79,72,64,74,67,64,100,93,79,29.98,29.91,29.80,10,6,0,13,5,34,3.01,8,Fog-Rain-Thunderstorm,149
2013-6-2,81,70,62,64,61,56,100,83,48,30.01,29.97,29.94,10,6,0,12,2,,0.00,3,Fog-Rain,1
2013-6-3,82,70,57,61,58,55,93,68,41,30.03,29.98,29.91,10,10,10,10,4,,0.00,0,,97
2013-6-4,82,72,61,63,61,58,90,70,51,30.03,29.95,29.90,10,10,10,12,4,,0.00,0,,102
2013-6-5,88,76,64,70,66,62,93,76,49,29.99,29.89,29.78,10,10,7,8,2,,0.01,2,Rain-Thunderstorm,280
2013-6-6,75,70,66,67,65,63,93,81,69,29.94,29.86,29.82,10,10,10,8,2,,0.00,5,Rain-Thunderstorm,324
2013-6-7,82,72,63,65,57,51,87,60,35,29.94,29.90,29.87,10,10,10,7,2,,0.00,4,,335
2013-6-8,82,70,57,62,58,54,93,66,39,29.97,29.92,29.88,10,10,10,6,1,,0.00,1,Rain,142
2013-6-9,82,75,68,72,67,62,94,80,62,29.94,29.90,29.85,10,10,6,12,5,17,0.04,3,Rain,215
2013-6-10,91,80,68,70,68,64,93,69,41,29.94,29.92,29.90,10,10,10,12,3,20,0.00,0,,246
2013-6-11,93,82,72,73,71,69,91,69,49,30.03,29.98,29.94,10,10,10,13,3,17,0.00,0,,233
2013-6-12,91,83,75,73,71,69,90,69,48,30.05,29.99,29.94,10,10,10,13,6,20,0.00,0,,249
2013-6-13,97,84,73,75,72,66,91,65,44,29.99,29.95,29.88,10,10,9,13,3,17,0.00,0,,306
2013-6-14,89,81,73,68,66,64,76,61,49,30.03,29.98,29.94,10,10,10,10,5,,0.00,2,,98
2013-6-15,89,78,66,68,65,63,87,64,45,30.05,30.00,29.95,10,10,10,8,2,,0.00,0,,163
2013-6-16,90,80,73,77,71,66,100,81,55,30.08,29.99,29.91,10,8,2,9,2,17,0.10,3,Rain-Thunderstorm,245
2013-6-17,84,78,71,72,70,69,96,85,61,30.01,29.92,29.86,10,10,9,12,3,26,0.03,4,Rain-Thunderstorm,286
2013-6-18,84,76,69,71,67,63,97,75,49,30.01,29.95,29.87,10,10,10,12,3,,0.00,2,,81
2013-6-19,88,76,64,67,65,61,94,70,43,30.04,30.01,29.96,10,10,8,8,2,,0.00,1,,144
2013-6-20,91,80,68,72,68,65,90,68,45,30.10,30.05,30.01,10,10,8,8,3,,0.00,1,,132
2013-6-21,93,84,75,74,71,68,85,67,44,30.12,30.07,30.02,10,10,9,9,4,,0.00,1,,146
2013-6-22,93,84,75,72,71,69,90,69,45,30.09,30.03,29.97,10,10,7,8,3,,0.00,0,,132
2013-6-23,93,84,75,72,70,67,85,65,42,30.04,30.00,29.96,10,10,7,10,4,16,0.00,1,,176
2013-6-24,93,83,75,72,70,66,87,64,44,30.09,30.03,29.97,10,10,7,9,5,16,0.00,0,,178
2013-6-25,93,83,75,72,71,69,89,67,47,30.05,29.99,29.90,10,10,10,14,7,20,0.00,3,,200
2013-6-26,93,85,77,72,71,69,84,64,45,29.98,29.93,29.87,10,10,10,15,7,23,0.00,1,,227
2013-6-27,102,86,73,76,72,69,93,63,36,29.97,29.92,29.86,10,10,10,9,3,16,0.00,0,,274
2013-6-28,100,90,80,74,67,55,79,52,23,29.89,29.82,29.76,10,9,3,9,4,21,0.00,0,,308
2013-6-29,93,82,71,67,57,50,81,45,24,29.82,29.79,29.74,10,10,10,13,4,26,0.00,1,,321
2013-6-30,84,73,64,61,58,55,87,56,38,29.90,29.84,29.78,10,10,10,9,4,17,0.00,2,Rain,346